Regional Weather Roundup
Issued by NWS

Home | Current Version | Previous Version | Graphics & Text | Print | Product List | Glossary On
Versions: 1 2 3 4 5 6 7 8 9 10 11 12 13 14 15 16 17 18 19 20 21 22 23 24 25 26 27 28 29 30 31 32 33 34 35 36 37 38 39 40 41 42 43 44 45 46 47 48 49 50
521
ASUS43 KBIS 250810
RWRND
NORTH DAKOTA REGIONAL WEATHER ROUNDUP
NATIONAL WEATHER SERVICE EASTERN NORTH DAKOTA/GRAND FORKS ND
300 AM CDT FRI MAY 25 2018

  NOTE: "FAIR" INDICATES FEW OR NO CLOUDS BELOW 12,000 FEET WITH NO
  SIGNIFICANT WEATHER AND/OR OBSTRUCTIONS TO VISIBILITY.

NDZ001>003-009>011-017-250900-
...NORTHWEST NORTH DAKOTA...

CITY           SKY/WX    TMP DP  RH WIND       PRES   REMARKS
WILLISTON      FAIR      62  56  80 SW8       29.75R
MINOT          FAIR      66  55  67 SW9       29.70S
MINOT AFB      FAIR      62  55  78 W9        29.69S
$$

NDZ018>021-031>035-040>046-250900-
...SOUTHWEST NORTH DAKOTA...

CITY           SKY/WX    TMP DP  RH WIND       PRES   REMARKS
BISMARCK       FAIR      63  55  75 W5        29.78S
DICKINSON      FAIR      58  52  80 SW9       29.80F
GARRISON         N/A     60  54  80 W8        29.74S
HETTINGER      FAIR      55  51  86 CALM      29.87S
$$

NDZ004>008-012>016-024-026-027-054-250900-
...NORTHEAST NORTH DAKOTA...

CITY           SKY/WX    TMP DP  RH WIND       PRES   REMARKS
GRAND FORKS    FAIR      66  56  70 SW10      29.66F
GRAND FORKS AF FAIR      62  55  75 W8        29.68S
DEVILS LAKE    FAIR      63  55  75 SW8       29.71F
$$

NDZ022-023-025-028>030-036>039-047>053-250900-
...SOUTHEAST NORTH DAKOTA...

CITY           SKY/WX    TMP DP  RH WIND       PRES   REMARKS
JAMESTOWN      FAIR      64  57  78 W5        29.74F
FARGO          FAIR      66  56  70 SW7       29.71S
WAHPETON       FAIR      70  59  68 SW10      29.74F
$$




USA.gov is the U.S. government's official web portal to all federal, state and local government web resources and services.